Regional Weather Roundup
Issued by NWS Little Rock, AR

Home | Current Version | Previous Version | Text Only | Print | Product List | Glossary On
Versions: 1 2 3 4 5 6 7 8 9 10 11 12 13 14 15 16 17 18 19 20 21 22 23 24 25 26 27
000
ASUS44 KLZK 190705
RWRLZK

WEATHER ROUNDUP FOR ARKANSAS
NATIONAL WEATHER SERVICE LITTLE ROCK AR
200 AM CDT SAT APR 19 2014

NOTE: "FAIR" INDICATES FEW OR NO CLOUDS BELOW 12,000 FEET WITH NO
SIGNIFICANT WEATHER AND/OR OBSTRUCTIONS TO VISIBILITY.

ARZ001-003-010-029-190800-
NORTHWEST ARKANSAS

CITY           SKY/WX    TMP DP  RH WIND       PRES   REMARKS
FAYETTEVILLE   CLEAR     48  44  86 CALM      30.20S
FORT SMITH     CLEAR     55  47  74 NE6       30.18S
HARRISON       CLEAR     55  40  56 S3        30.20F
BENTONVILLE    CLEAR     54  43  66 SE7       30.20S
ROGERS         CLEAR     55  45  68 E7        30.20F
SILOAM SPGS    CLEAR     54  39  58 E5        30.20F
HIGHFILL       CLEAR     50  42  74 CALM      30.19S
$$

ARZ004-005-016-190800-
NORTH CENTRAL ARKANSAS

CITY           SKY/WX    TMP DP  RH WIND       PRES   REMARKS
BATESVILLE     CLEAR     54  46  76 NW6       30.20F
FLIPPIN        CLEAR     52  37  58 CALM      30.21F
MTN HOME       CLEAR     55  41  59 CALM      30.21F
$$

ARZ040-041-190800-
WEST CENTRAL ARKANSAS

CITY           SKY/WX    TMP DP  RH WIND       PRES   REMARKS
MENA           CLEAR     48  48 100 CALM      30.20S
MOUNT IDA      CLEAR     48  46  93 CALM      30.16F
$$

ARZ009-017-025-026-028-190800-
NORTHEAST ARKANSAS

CITY           SKY/WX    TMP DP  RH WIND       PRES   REMARKS
CORNING        FAIR      54  50  87 N3        30.22F
JONESBORO      CLEAR     51  46  83 CALM      30.19F
NEWPORT        CLEAR     55  51  86 NW6       30.21F
WALNUT RIDGE   CLEAR     54  46  76 N8        30.21F
BLYTHEVILLE    CLEAR     53  50  89 N6        30.20S
$$

ARZ022-023-033-042-044-190800-
CENTRAL ARKANSAS

CITY           SKY/WX    TMP DP  RH WIND       PRES   REMARKS
LITTLE ROCK    CLEAR     54  50  86 CALM      30.18F
N LITTLE ROCK    N/A     59  50  73 NE5       30.18F
JACKSONVILLE   CLEAR     50  47  90 W2        30.19F
SEARCY         CLEAR     51  49  93 CALM      30.21S
HOT SPRINGS    CLEAR     51  46  83 CALM      30.18F
RUSSELLVILLE   CLEAR     49  46  90 CALM      30.18F
CLINTON        FAIR      46  46 100 CALM      30.22S FOG
$$

ARZ036-190800-
EAST ARKANSAS

CITY           SKY/WX    TMP DP  RH WIND       PRES   REMARKS
WEST MEMPHIS   CLEAR     54  53  97 NW3       30.18S FOG
$$

ARZ050-053-066-070-073-190800-
SOUTHWEST ARKANSAS

CITY           SKY/WX    TMP DP  RH WIND       PRES   REMARKS
ARKADELPHIA    FAIR      52  52 100 CALM      30.18F
CAMDEN         CLEAR     50  48  93 MISG      30.17S FOG
TEXARKANA      CLEAR     53  49  86 CALM      30.17F
EL DORADO      CLEAR     53  50  89 CALM      30.17S
DE QUEEN       CLEAR     49  48  97 CALM      30.16F FOG
$$

ARZ056-057-069-190800-
SOUTHEAST ARKANSAS

CITY           SKY/WX    TMP DP  RH WIND       PRES   REMARKS
PINE BLUFF     CLEAR     55  51  86 CALM      30.18F
STUTTGART      CLEAR     61  52  72 E7        30.19F
MONTICELLO     CLEAR     56  51  84 E5        30.17F

$$





USA.gov is the U.S. government's official web portal to all federal, state and local government web resources and services.